Wind_Speed
45 45 44 43 41 39 38 37 35 34 30 26 26 25 25 26 24 23 22 22 22 23 24 25 25 24 23 22 23 23 24 23 22 21 21 20 20 20 21 21 19 17
46 47 46 45 43 41 40 39 37 34 29 26 26 25 25 26 24 22 22 22 22 23 24 25 26 25 24 24 23 23 23 23 23 22 21 20 20 21 21 20 18 17
44 48 48 46 45 43 42 41 37 33 28 26 25 24 25 26 24 22 23 23 23 24 24 25 26 26 26 24 23 24 23 23 22 21 21 21 21 21 20 19 18 17
41 47 49 47 47 47 45 43 37 32 28 26 25 24 24 25 24 22 23 24 24 25 25 25 26 26 26 25 24 24 24 23 22 22 22 22 22 22 20 19 18 17
38 43 49 50 50 50 49 45 39 32 28 26 25 24 24 24 24 23 24 25 25 26 26 25 25 25 24 24 23 24 24 23 22 21 23 24 24 23 21 19 18 17
38 39 44 49 51 52 50 46 41 34 28 26 25 24 23 24 23 23 24 26 26 27 26 25 24 23 22 23 23 24 24 23 21 21 23 25 25 24 22 20 19 18
41 38 39 44 49 52 52 47 41 35 29 27 26 23 23 24 24 24 25 26 27 28 26 24 23 22 22 22 23 24 24 23 22 22 23 25 25 24 23 21 20 19
41 40 40 42 46 51 52 46 39 35 30 29 27 24 24 25 25 25 25 26 27 28 27 24 23 22 21 22 23 23 24 23 23 23 24 24 25 24 24 23 21 20
42 42 43 44 45 48 49 43 38 35 32 30 27 25 25 26 26 26 26 26 27 28 27 26 23 22 22 22 22 23 23 24 24 24 24 24 25 25 24 23 22 22
43 43 43 42 41 45 46 41 38 36 33 32 29 27 27 27 28 27 26 27 27 27 27 26 25 23 22 22 22 22 23 24 24 25 25 25 26 26 25 24 23 23
45 44 43 40 40 45 46 43 40 38 36 35 32 30 29 29 29 28 27 27 27 27 26 26 26 24 22 22 22 22 23 24 25 25 25 25 26 27 27 26 24 24
46 45 43 42 44 47 47 45 42 40 39 37 34 31 30 30 30 30 29 28 27 26 25 25 26 25 23 23 23 23 24 25 25 26 26 26 26 28 28 27 26 25
48 47 44 43 46 49 48 45 43 41 40 37 34 33 32 31 31 31 31 31 30 27 24 25 26 25 23 23 23 24 25 26 26 27 26 26 27 28 29 28 28 27
49 48 45 44 47 51 50 48 45 43 39 37 35 34 33 32 31 32 33 33 32 29 26 25 26 26 24 23 25 25 26 27 27 27 27 27 28 29 29 29 28 28
50 48 44 44 48 52 52 50 48 44 39 38 37 35 34 33 32 33 34 34 33 32 29 26 26 27 25 24 26 27 27 27 28 28 28 28 29 29 30 30 29 29
51 49 46 46 49 53 53 51 50 45 40 39 38 36 36 35 34 33 35 36 35 33 32 28 27 28 27 25 27 28 28 28 29 29 29 29 30 30 31 31 31 30
52 50 48 48 49 53 54 53 51 47 42 41 39 38 37 36 35 35 36 38 36 35 34 31 28 29 28 26 28 29 30 30 29 29 29 31 31 31 31 32 32 31
53 51 49 49 50 53 55 55 53 50 45 42 40 39 38 37 36 36 38 39 38 37 36 33 30 29 29 28 29 30 31 32 31 30 30 31 32 32 33 33 33 32
55 53 50 51 51 52 54 55 55 53 47 42 41 40 40 39 38 38 39 40 39 38 37 34 30 29 30 29 30 32 32 33 32 31 31 32 33 33 34 34 34 33
57 55 53 53 53 52 52 54 56 55 48 43 42 42 41 40 39 39 41 41 40 40 39 35 31 30 30 30 31 33 34 33 32 31 31 33 33 34 35 35 35 35
58 57 56 56 56 54 52 53 55 55 50 44 42 43 42 41 41 41 42 43 42 41 40 36 32 31 31 30 32 34 35 34 33 32 32 33 33 34 36 36 36 36
60 59 58 58 60 58 54 53 53 52 50 45 43 44 44 43 43 43 43 44 43 43 41 36 32 32 32 31 33 35 35 34 33 33 33 33 33 34 35 37 37 37
61 60 58 57 59 59 56 53 51 50 48 46 45 46 46 45 45 45 45 45 45 44 41 36 33 33 33 32 33 36 36 34 33 34 34 34 34 34 35 37 37 37
61 61 59 58 57 57 56 54 52 50 48 46 46 47 47 47 48 48 47 47 46 45 42 37 35 34 33 33 34 36 36 34 33 34 34 35 34 34 34 36 37 38
62 62 61 61 60 57 56 56 54 51 49 47 48 49 50 50 50 50 49 48 46 45 42 38 35 33 33 33 35 37 37 35 33 33 35 36 35 35 35 35 36 38
63 63 61 60 59 57 57 56 55 53 50 49 50 52 52 52 52 51 50 48 46 44 41 38 35 32 32 34 36 38 39 36 35 35 36 37 37 37 36 35 35 38
Wind_Direction
233 235 236 238 241 243 245 246 246 245 244 247 253 258 262 269 276 281 283 283 282 283 285 286 286 289 292 295 297 298 299 296 292 289 290 293 292 288 285 287 291 298
231 233 237 240 243 244 244 243 243 243 243 246 252 255 260 268 276 282 285 286 286 286 287 287 287 289 291 293 295 295 296 296 294 291 288 289 288 284 283 286 293 300
232 231 236 241 244 245 243 241 240 240 241 245 249 254 260 268 276 284 289 290 291 290 290 289 288 289 290 291 292 293 295 296 294 290 287 286 284 282 285 291 297 301
234 232 237 242 244 245 243 241 239 236 238 243 247 252 259 268 278 288 293 293 294 295 295 293 291 291 290 290 291 292 294 295 293 288 285 284 284 285 291 297 299 300
236 234 238 241 242 245 245 244 241 234 234 240 244 250 259 269 280 290 294 295 296 299 299 298 294 292 291 288 289 291 292 293 291 287 284 285 288 291 295 297 298 300
237 237 239 241 242 244 245 247 244 234 231 238 241 249 260 271 282 290 293 294 297 301 302 301 297 294 290 287 287 289 291 292 290 286 284 285 289 293 294 296 298 300
239 240 240 241 243 243 243 246 244 233 230 235 239 248 261 272 282 286 289 293 297 301 302 300 298 294 288 285 286 289 291 292 289 284 283 285 289 292 292 294 296 299
239 240 241 242 244 243 241 242 237 229 229 234 238 249 261 271 278 282 286 290 295 299 300 300 298 292 286 284 286 290 291 291 287 283 283 286 288 289 290 293 295 296
238 240 242 244 246 242 237 233 228 226 231 235 240 250 260 268 274 277 282 287 292 296 298 299 297 290 284 284 287 291 292 290 287 284 284 285 287 288 289 291 294 294
239 240 242 245 243 236 231 227 225 227 233 238 244 251 257 265 270 274 280 284 289 293 294 296 295 291 286 286 289 292 292 290 287 284 283 284 286 288 289 290 291 292
239 239 243 243 235 229 229 227 225 228 234 240 246 251 256 263 268 273 278 282 286 290 292 292 291 290 289 288 291 292 291 289 286 283 282 284 286 287 288 288 289 289
238 238 241 240 232 229 230 229 228 230 235 241 246 251 257 262 267 273 278 281 284 287 289 290 289 289 290 291 293 294 292 288 285 283 282 284 285 286 287 288 288 289
237 237 239 239 233 229 230 231 231 232 234 240 245 250 257 261 266 273 277 280 283 285 287 287 288 290 292 294 297 297 294 290 286 284 284 283 285 285 286 288 289 289
237 238 238 239 233 229 230 232 232 231 233 238 243 248 256 261 265 270 275 279 282 284 286 285 286 290 293 296 299 298 296 293 288 285 285 284 284 285 286 287 288 289
237 238 238 239 234 231 231 233 233 232 231 235 241 247 253 259 263 269 274 277 279 284 286 286 286 289 291 295 299 298 298 295 290 287 286 285 285 285 286 287 287 288
236 237 238 238 235 232 232 233 235 235 233 235 240 245 250 257 262 268 273 275 277 282 285 286 287 287 289 294 297 298 298 296 291 288 287 286 285 285 286 287 287 288
234 235 237 238 236 232 231 232 235 237 236 237 240 244 250 256 262 268 273 274 276 280 283 285 286 286 287 292 295 296 298 297 293 289 287 286 285 285 286 286 287 287
234 235 235 237 236 234 232 233 236 238 238 237 241 246 251 256 262 268 272 273 275 278 282 284 285 284 286 289 292 295 296 296 293 289 287 285 284 285 285 285 286 286
233 234 234 235 235 236 235 235 237 239 238 237 239 245 251 255 262 269 271 273 276 278 280 283 282 282 284 287 290 293 295 295 292 288 286 285 284 285 285 285 285 286
232 234 234 234 235 237 236 236 237 239 240 239 238 242 250 256 262 268 270 272 276 278 279 280 280 279 281 284 288 292 293 293 290 288 286 285 285 285 285 285 285 286
233 234 233 234 236 237 237 236 237 239 243 244 241 242 248 255 262 267 269 272 275 277 277 279 277 275 277 281 286 290 292 292 291 289 287 286 285 285 285 285 285 285
234 233 234 236 236 236 238 239 238 239 242 245 244 244 247 254 261 266 268 271 273 274 276 276 273 272 274 279 285 288 291 292 292 290 287 286 285 285 284 284 284 284
236 234 234 237 236 235 237 240 239 239 240 242 245 246 248 254 261 264 266 268 271 272 274 274 271 270 273 278 283 287 289 290 291 290 287 285 285 284 283 283 283 283
237 237 235 236 236 236 238 240 241 240 241 242 244 246 250 255 260 263 264 266 269 270 272 271 269 269 273 277 282 285 285 287 289 289 287 285 284 283 282 282 282 282
237 238 237 236 237 239 239 241 243 242 241 242 243 246 251 256 259 261 263 264 266 267 269 269 267 268 272 278 281 283 283 283 286 288 287 285 283 281 280 280 280 281
235 238 239 239 240 241 240 241 243 243 241 242 244 247 252 255 257 259 261 262 264 265 266 267 266 268 272 276 279 281 281 282 283 285 285 285 283 280 278 279 279 279
Height
5794 5797 5798 5800 5803 5806 5808 5810 5811 5813 5816 5818 5819 5820 5820 5820 5821 5822 5822 5822 5822 5822 5821 5820 5820 5821 5821 5821 5821 5820 5820 5819 5818 5818 5817 5816 5815 5816 5816 5815 5813 5811
5791 5794 5795 5797 5800 5803 5805 5807 5808 5810 5813 5815 5816 5817 5817 5817 5818 5819 5819 5819 5819 5819 5818 5818 5818 5818 5818 5818 5818 5818 5817 5816 5815 5815 5815 5814 5815 5815 5815 5813 5810 5808
5788 5790 5792 5795 5798 5800 5802 5803 5805 5808 5810 5812 5813 5814 5814 5815 5815 5817 5817 5816 5816 5816 5816 5815 5815 5815 5815 5815 5815 5815 5815 5814 5813 5813 5813 5813 5814 5814 5813 5810 5807 5805
5785 5788 5790 5792 5794 5796 5798 5800 5803 5805 5807 5809 5810 5811 5811 5812 5813 5814 5814 5813 5813 5813 5813 5813 5813 5812 5812 5812 5812 5811 5811 5811 5811 5811 5811 5811 5811 5810 5808 5806 5804 5803
5781 5784 5787 5789 5791 5793 5795 5797 5800 5802 5804 5806 5807 5808 5808 5809 5810 5811 5810 5810 5810 5810 5810 5810 5810 5810 5809 5809 5809 5809 5808 5808 5808 5808 5808 5807 5807 5806 5804 5803 5802 5801
5777 5781 5784 5786 5788 5790 5792 5795 5797 5799 5801 5803 5804 5804 5805 5806 5807 5808 5807 5807 5807 5807 5807 5807 5807 5807 5807 5807 5807 5806 5806 5805 5805 5805 5804 5804 5803 5802 5801 5800 5800 5799
5774 5778 5781 5784 5785 5786 5788 5791 5794 5796 5798 5799 5800 5801 5802 5803 5804 5805 5805 5805 5805 5805 5805 5805 5805 5805 5805 5805 5804 5804 5803 5803 5802 5802 5801 5801 5800 5799 5798 5798 5798 5797
5771 5774 5777 5779 5780 5782 5784 5788 5791 5793 5794 5795 5797 5798 5798 5800 5801 5802 5802 5802 5802 5802 5802 5802 5802 5802 5802 5802 5802 5801 5801 5800 5799 5799 5799 5798 5798 5797 5797 5796 5796 5795
5767 5770 5772 5774 5776 5778 5781 5784 5787 5789 5790 5792 5793 5794 5795 5797 5797 5798 5799 5799 5800 5800 5799 5799 5800 5800 5800 5800 5800 5799 5798 5797 5797 5796 5796 5796 5795 5795 5795 5794 5793 5793
5762 5764 5767 5769 5772 5774 5778 5781 5783 5785 5787 5789 5790 5791 5792 5793 5794 5795 5796 5797 5797 5797 5797 5797 5797 5797 5797 5797 5797 5797 5796 5795 5795 5794 5793 5793 5793 5793 5792 5792 5791 5791
5758 5760 5763 5766 5768 5772 5775 5776 5778 5781 5783 5785 5787 5788 5789 5790 5790 5791 5793 5794 5794 5794 5794 5794 5794 5794 5795 5795 5794 5794 5793 5793 5792 5792 5791 5791 5791 5790 5790 5790 5789 5789
5754 5757 5760 5762 5765 5768 5771 5772 5774 5777 5779 5781 5783 5784 5785 5786 5787 5788 5789 5791 5791 5792 5792 5792 5791 5792 5792 5792 5791 5791 5791 5790 5790 5789 5789 5789 5789 5788 5787 5787 5787 5786
5750 5753 5756 5759 5762 5764 5767 5769 5770 5773 5775 5777 5779 5780 5781 5782 5783 5785 5786 5787 5788 5789 5789 5789 5788 5789 5789 5789 5789 5788 5788 5787 5787 5787 5787 5787 5787 5786 5785 5785 5784 5784
5746 5749 5753 5756 5758 5760 5763 5765 5766 5768 5771 5774 5775 5776 5778 5779 5780 5781 5782 5783 5784 5785 5786 5786 5786 5786 5787 5787 5786 5785 5785 5784 5784 5784 5784 5784 5784 5783 5783 5782 5782 5781
5742 5745 5749 5752 5754 5756 5758 5760 5762 5764 5767 5769 5771 5773 5774 5775 5777 5778 5779 5780 5780 5781 5782 5783 5783 5783 5784 5784 5784 5783 5782 5782 5781 5781 5781 5781 5781 5780 5780 5780 5779 5779
5737 5740 5744 5747 5749 5752 5754 5757 5758 5760 5763 5765 5767 5769 5771 5772 5773 5774 5775 5776 5777 5778 5778 5779 5780 5780 5781 5781 5781 5780 5780 5779 5779 5778 5779 5778 5778 5777 5777 5777 5777 5777
5733 5735 5738 5741 5744 5747 5750 5752 5754 5756 5758 5761 5763 5765 5766 5768 5769 5770 5771 5772 5773 5774 5774 5776 5777 5777 5778 5778 5778 5777 5777 5776 5776 5776 5776 5775 5775 5775 5774 5774 5774 5773
5728 5731 5734 5737 5740 5742 5745 5748 5750 5752 5754 5756 5759 5761 5762 5763 5765 5766 5767 5768 5769 5770 5771 5772 5774 5774 5775 5775 5775 5774 5773 5773 5773 5773 5773 5772 5772 5771 5771 5771 5770 5770
5722 5725 5729 5732 5735 5738 5741 5743 5745 5747 5750 5753 5755 5757 5758 5759 5761 5763 5763 5764 5766 5767 5768 5769 5770 5771 5772 5772 5771 5771 5770 5769 5769 5769 5769 5769 5768 5768 5768 5768 5767 5766
5717 5721 5724 5728 5730 5733 5736 5738 5740 5743 5747 5749 5751 5753 5754 5755 5757 5759 5759 5760 5762 5763 5764 5765 5767 5768 5768 5768 5768 5766 5766 5765 5765 5766 5766 5765 5765 5765 5764 5764 5764 5763
5712 5716 5719 5723 5726 5728 5731 5733 5736 5739 5743 5746 5748 5749 5751 5752 5753 5755 5756 5757 5758 5759 5760 5761 5763 5764 5764 5764 5764 5763 5762 5761 5761 5762 5762 5762 5762 5762 5761 5760 5760 5760
5706 5710 5714 5718 5721 5724 5726 5728 5731 5735 5739 5742 5745 5746 5747 5748 5749 5751 5752 5753 5754 5755 5756 5757 5759 5759 5760 5761 5760 5759 5758 5757 5757 5758 5758 5759 5759 5758 5757 5756 5756 5756
5701 5705 5709 5713 5716 5719 5721 5724 5728 5731 5735 5738 5740 5741 5742 5744 5745 5746 5748 5748 5749 5750 5752 5753 5754 5755 5756 5756 5756 5755 5754 5754 5753 5753 5754 5754 5755 5754 5754 5753 5752 5752
5696 5700 5705 5708 5711 5715 5718 5720 5724 5727 5731 5734 5735 5736 5737 5739 5740 5741 5743 5744 5745 5746 5748 5749 5750 5751 5751 5752 5752 5751 5750 5749 5749 5749 5749 5750 5750 5750 5750 5749 5748 5748
5691 5694 5699 5702 5706 5710 5714 5716 5720 5723 5726 5728 5730 5731 5732 5734 5735 5736 5738 5740 5741 5742 5743 5744 5745 5747 5747 5747 5747 5746 5745 5745 5745 5745 5745 5745 5745 5745 5745 5745 5744 5743
5685 5688 5692 5697 5701 5706 5709 5712 5716 5718 5720 5722 5724 5725 5727 5728 5730 5731 5733 5735 5736 5737 5738 5739 5741 5743 5743 5743 5742 5741 5740 5741 5741 5741 5741 5740 5740 5740 5740 5740 5740 5739